[[{"header":{"parameterUnit":"m.s-1","parameterCategory":1,"la1":30.2992,"la2":30.254,"lo1":-89.0895,"lo2":-89.0443,"dy":0.0025,"dx":0.0025,"nx":19,"ny":19,"refTime":"2026-05-05T21:00:00:Z","depth":0,"parameterNumber":2,"parameterNumberName":"U-component_of_WINDS"},"data":[0,0,0,-1.9878,-1.9879,-1.9949,-1.9949,-2.003,-2.0031,0,0,0,0,0,0,0,0,0,0,0,-1.9852,-1.9852,-1.9878,-1.9879,-1.9948,-1.9949,-2.003,-2.0031,0,0,0,0,0,0,0,0,0,0,0,-1.9852,-1.9852,-1.9853,-1.9879,-1.9948,-1.9949,-2.003,-1.9981,0,0,0,0,0,0,0,0,0,0,-1.9914,-1.9886,-1.9852,-1.9853,-1.988,-1.9948,-1.9949,-1.9978,-1.9984,-1.9996,0,-2.0005,0,-2.0019,-2.0036,-2.0036,0,0,0,-1.9883,-1.9881,-1.9904,-1.9853,-1.988,-1.9948,-1.9918,-1.9981,-1.9987,-2.0003,-2.0006,-2.0009,-2.0021,-2.0037,-2.0037,-2.0094,-2.0094,0,0,-1.9879,-1.9862,-1.99,-1.9908,-1.9896,-1.9916,-1.992,-1.9985,-1.9988,-2.0006,-2.0011,-2.0022,-2.0037,-2.0038,-2.0093,-2.0094,0,0,0,-1.9866,-1.9859,-1.9881,-1.9904,-1.9917,-1.9918,-1.9923,-1.9985,-1.9993,-2.0012,-2.0023,-2.0037,-2.0038,-2.0093,-2.0093,-2.008,0,0,0,-1.9863,-1.9851,-1.9879,-1.9869,-1.9916,-1.9952,-1.9921,-1.9989,-1.9997,-2.0022,-2.0038,-2.0039,-2.0093,-2.0093,-2.0081,-2.0077,0,0,0,-1.9849,-1.985,-1.9858,-1.9868,-1.9897,-1.9951,-1.9964,-1.9991,-2.0003,-2.0036,-2.0039,-2.0093,-2.0093,-2.0081,-2.0077,-2.0087,0,0,0,-1.9829,-1.9845,-1.9857,-1.988,-1.9897,-1.9943,-1.9963,-1.9999,-2.0026,-2.0038,-2.0093,-2.0093,-2.0081,-2.0077,-2.0087,-2.0091,-2.0091,0,0,-1.984,-1.9846,-1.9861,-1.9873,-1.9913,-1.9933,-1.9971,-2.0013,-2.0032,-2.0072,-2.0074,-2.0081,-2.0077,-2.0087,-2.01,-2.01,0,0,0,-1.9858,-1.9868,-1.9882,-1.9907,-1.9939,-1.9967,-2.0004,-2.002,-2.0055,-2.0049,-2.0087,-2.0086,-2.0092,-2.0095,-2.0095,-2.0102,-2.0094,-2.0094,-2.0094,-1.9848,-1.9872,-1.9897,-1.993,-1.9954,-1.9993,-2.0015,-2.0043,-2.006,-2.0069,-2.008,-2.0085,-2.0088,-2.0088,-2.0094,-2.0085,-2.0085,-2.0085,-2.0085,-1.9865,-1.9883,-1.9906,-1.9939,-1.9964,-1.9993,-2.0032,-2.0043,-2.0074,-2.0078,-2.0085,-2.0087,-2.0087,-2.0094,-2.0084,-2.0084,-2.0085,-2.0085,-2.0085,-1.986,-1.9873,-1.9892,-1.9931,-1.9959,-1.9992,-2.002,-2.0043,-2.0064,-2.0071,-2.0086,-2.0086,-2.0089,-2.0077,-2.0077,-2.0077,-2.0077,-2.0077,-2.0077,-1.9848,-1.9869,-1.989,-1.9926,-1.9946,-1.9974,-2.0015,-2.0035,-2.0063,-2.0077,-2.0077,-2.0093,-2.0083,-2.008,-2.0077,-2.0077,-2.0077,-2.0077,-2.0077,-1.9855,-1.9857,-1.9889,-1.9908,-1.9953,-1.998,-2.0009,-2.0048,-2.0068,-2.0081,-2.0097,-2.0086,-2.0093,-2.0094,-2.0091,-2.0092,-2.0092,-2.0092,-2.0092,-1.9851,-1.9857,-1.9895,-1.9925,-1.9957,-1.9986,-2.0023,-2.0055,-2.0088,-2.0103,-2.0106,-2.0105,-2.0104,-2.0112,-2.0112,-2.011,-2.0115,-2.0116,-2.0116,-1.9857,-1.9868,-1.9893,-1.9925,-1.9962,-1.9994,-2.0029,-2.0063,-2.0102,-2.0117,-2.0114,-2.0113,-2.0111,-2.011,-2.0123,-2.0122,-2.0118,0,0]},{"header":{"parameterUnit":"m.s-1","parameterCategory":1,"la1":30.2992,"la2":30.254,"lo1":-89.0895,"lo2":-89.0443,"dy":0.0025,"dx":0.0025,"nx":19,"ny":19,"refTime":"2026-05-05T21:00:00:Z","depth":0,"parameterNumber":3,"parameterNumberName":"V-component_of_WINDS"},"data":[0,0,0,6.7458,6.746,6.7538,6.7538,6.7651,6.7653,0,0,0,0,0,0,0,0,0,0,0,6.7445,6.7446,6.7457,6.746,6.7538,6.7538,6.7651,6.7653,0,0,0,0,0,0,0,0,0,0,0,6.7444,6.7446,6.7447,6.746,6.7538,6.7538,6.7651,6.7587,0,0,0,0,0,0,0,0,0,0,6.7508,6.7507,6.7445,6.7447,6.7461,6.7538,6.7538,6.7583,6.7591,6.7623,0,6.7656,0,6.7657,6.7661,6.7662,0,0,0,6.7451,6.7501,6.7513,6.7447,6.7461,6.7538,6.75,6.7587,6.7596,6.7633,6.7657,6.7661,6.7658,6.7662,6.7663,6.7883,6.7885,0,0,6.7447,6.7464,6.7508,6.7519,6.7511,6.7498,6.7503,6.7592,6.7619,6.7658,6.7664,6.766,6.7663,6.7664,6.7882,6.7883,0,0,0,6.744,6.7461,6.7471,6.7515,6.7528,6.75,6.7506,6.7615,6.7617,6.7665,6.7662,6.7664,6.7665,6.788,6.7882,6.7972,0,0,0,6.7437,6.7457,6.7469,6.748,6.7527,6.7573,6.7527,6.7611,6.762,6.7661,6.7664,6.7667,6.7879,6.7881,6.7966,6.8011,0,0,0,6.7436,6.7457,6.7472,6.7481,6.7516,6.7571,6.7578,6.7613,6.7619,6.7662,6.7667,6.7877,6.7881,6.7961,6.8002,6.8076,0,0,0,6.7439,6.7548,6.7474,6.7595,6.7515,6.7627,6.7577,6.7659,6.7706,6.7664,6.7879,6.7882,6.7959,6.7997,6.807,6.8141,6.8172,0,0,6.7586,6.7567,6.7636,6.7572,6.7702,6.7613,6.7755,6.7781,6.7767,6.7845,6.785,6.7968,6.8002,6.8075,6.8339,6.8364,0,0,0,6.7689,6.774,6.777,6.7818,6.7842,6.7866,6.7869,6.7878,6.7944,6.7812,6.8013,6.8033,6.8074,6.8108,6.8129,6.8164,6.7898,6.7898,6.7897,6.7921,6.7902,6.8016,6.8006,6.8053,6.8055,6.8091,6.8104,6.8067,6.8115,6.8138,6.8302,6.8341,6.8357,6.8394,6.8173,6.8174,6.8174,6.8174,6.8136,6.8205,6.8157,6.8252,6.8229,6.8306,6.8313,6.8285,6.8353,6.8282,6.8318,6.8242,6.8385,6.8416,6.8181,6.818,6.8179,6.8178,6.8178,6.8287,6.8317,6.8329,6.8398,6.8452,6.8436,6.8505,6.8481,6.8458,6.8494,6.8516,6.8515,6.8511,6.8506,6.8507,6.8507,6.8508,6.8508,6.8509,6.844,6.8451,6.8513,6.855,6.8578,6.8612,6.8617,6.8643,6.8666,6.8643,6.8643,6.8603,6.8403,6.8354,6.8517,6.8516,6.8515,6.8514,6.8513,6.8667,6.8613,6.871,6.8739,6.878,6.8836,6.8805,6.8861,6.8879,6.8914,6.8866,6.8722,6.8699,6.8682,6.8642,6.887,6.887,6.887,6.887,6.8796,6.8783,6.8878,6.8926,6.8969,6.8952,6.9061,6.9066,6.9061,6.9071,6.9034,6.8978,6.8961,6.8948,6.8925,6.8887,6.9172,6.9173,6.9173,6.8935,6.8926,6.9025,6.9022,6.9053,6.908,6.9182,6.9237,6.922,6.9185,6.9078,6.9065,6.8974,6.8945,6.8908,6.8873,6.8802,0,0]}]]